Tracking 19644 objects as of 25-Apr-2019
HD Live streaming from Space Station
objects crossing your sky now

METEOR 2-17 DEB

Track METEOR 2-17 DEB now!
10-day predictions


NORAD ID: 35364
Int'l Code: 1988-005Y
Perigee: 913.1 km
Apogee: 932.7 km
Inclination: 82.6 °
Period: 103.3 minutes
Semi major axis: 7293 km
RCS: 0.008 m2 (small)
Launch date: January 30, 1988
Source: Commonwealth of Independent States (former USSR) (CIS)
Launch site: PLESETSK MISSILE AND SPACE COMPLEX (PKMTR)

Note: This is SATELLITE DEBRIS
aabbcc
Your satellite tracking list
Your tracking list is empty




NASA's NSSDC Master Catalog

Two Line Element Set (TLE):
1 35364U 88005Y   19113.04185366  .00001131  00000-0  84861-3 0  9996
2 35364  82.5544 220.4061 0013490  53.9344  68.0257 13.93679142586126
Source of the keplerian elements: AFSPC